Regional Weather Roundup
Issued by NWS Albany, NY

Home | Current Version | Previous Version | Graphics & Text | Print | Product List | Glossary Off
Versions: 1 2 3 4 5 6 7 8 9 10 11 12 13 14 15 16 17 18 19 20 21 22 23 24 25 26 27 28 29 30 31 32 33 34 35 36 37 38 39 40 41 42 43 44 45 46 47 48 49 50

000
ASUS41 KALY 270510
RWRALY

NEW YORK STATE HOURLY WEATHER ROUNDUP
NATIONAL WEATHER SERVICE ALBANY NY
100 AM EDT WED AUG 27 2014

NOTE: "FAIR" INDICATES FEW OR NO CLOUDS BELOW 12,000 FEET WITH NO
SIGNIFICANT WEATHER AND/OR NO OBSTRUCTIONS TO VISIBILITY.

NYZ032-033-038>043-046>054-057>066-NYZ062>081-270600-
EAST


CITY           SKY/WX    TMP DP  RH WIND       PRES   REMARKS
ALBANY         PTCLDY    70  63  78 S7        30.02F
GLENS FALLS    CLEAR     65  60  84 S3        30.00F
POUGHKEEPSIE   CLEAR     67  63  87 CALM      30.05F
NEWBURGH       CLEAR     70  64  83 W6        30.09R
MONTGOMERY     CLEAR     64  60  87 SW5       30.07F
WHITE PLAINS   CLEAR     67  63  87 CALM      30.08F
ISLIP          CLEAR     69  61  75 SW6       30.06F
NEW YORK CITY  PTCLDY    73  58  59 SW9       30.07F
CENTRAL PARK   CLEAR     73  47  39 VRB3      30.10F
$$

NYZ005>009-017-018-044>046-055-056-270600-
CENTRAL


CITY           SKY/WX    TMP DP  RH WIND       PRES   REMARKS
FULTON         MOCLDY    73  60  63 S8        29.99F
SYRACUSE       MOCLDY    75  59  57 S6        29.99F
ROME           MOCLDY    68  60  75 E7        30.02F
ELMIRA         MOCLDY    63  60  90 E3        30.06S
BINGHAMTON     PTCLDY    68  60  75 SW8       30.09F
MONTICELLO     CLEAR     63  61  94 CALM      30.12S
$$

NYZ026>034-041>043-270600-
NORTH


CITY           SKY/WX    TMP DP  RH WIND       PRES   REMARKS
WATERTOWN      CLOUDY    76  59  55 S9        29.95F
FORT DRUM      NOT AVBL
MASSENA        LGT RAIN  74  61  63 SW12      29.91F
SARANAC LAKE   CLOUDY    65  56  72 SW5       30.01F
PLATTSBURGH    CLEAR     68  62  81 S3        29.93F
$$

NYZ001>004-010>016-019>021-270600-
WEST


CITY           SKY/WX    TMP DP  RH WIND       PRES   REMARKS
NIAGARA FALLS  CLOUDY    75  69  81 SW9       30.00R
BUFFALO        MOCLDY    74  67  78 S6        30.01R
DUNKIRK        MOCLDY    75  67  76 SW15G24   30.02R
JAMESTOWN      PTCLDY    70  64  83 S8        30.09S
WELLSVILLE     PTCLDY    69  62  78 SW9       30.11F
ROCHESTER      MOCLDY    72  67  84 SW6       30.00S
PENN YAN       MOCLDY    72  62  71 SW10      30.03F
$$

             KEY
       WCI = WIND CHILL INDEX
       VSB = VISIBILITY
       HX  = HEAT INDEX
$$


USA.gov is the U.S. government's official web portal to all federal, state and local government web resources and services.